When you browse on this site, cookies collect data to enhance your experience and personalize the content and advertising you see.
Visit our Privacy Policy to learn more. By continuing to use the site, you agree to this use of cookies and data.
  • In Romania
  • List of Countries
  • For 7 days
  • Water Temperature
  • Satellite Maps
  • Weather Map
  • Weather Widgets
  • user-avatar
    Login

    Hourly Weather Pietrzykow

    Today, 22 May, Wednesday

    Time Temperature Precipitation Wind Pressure Humidity
    00:00 +13°C° 0.1 mm 4 mps 725 mmHg 89%
    01:00 +13°C° 0 mm 4 mps 725 mmHg 91%
    02:00 +13°C° 0.2 mm 4 mps 725 mmHg 93%
    03:00 +13°C° 0.2 mm 5 mps 725 mmHg 95%
    04:00 +13°C° 0.2 mm 5 mps 726 mmHg 96%
    05:00 +13°C° 0.9 mm 6 mps 726 mmHg 96%
    06:00 +13°C° 0.9 mm 6 mps 726 mmHg 97%
    07:00 +13°C° 0 mm 4 mps 726 mmHg 96%
    08:00 +13°C° 1.5 mm 5 mps 726 mmHg 96%
    09:00 +13°C° 1.5 mm 6 mps 727 mmHg 96%
    10:00 +11°C° 1.5 mm 7 mps 727 mmHg 96%
    11:00 +11°C° 0.9 mm 7 mps 727 mmHg 96%
    12:00 +11°C° 0.9 mm 7 mps 728 mmHg 96%
    13:00 +11°C° 0.9 mm 7 mps 728 mmHg 95%
    14:00 +10°C° 0.5 mm 7 mps 728 mmHg 95%
    15:00 +10°C° 0.5 mm 7 mps 729 mmHg 95%
    16:00 +10°C° 0.5 mm 7 mps 729 mmHg 95%
    17:00 +10°C° 0.2 mm 7 mps 729 mmHg 95%
    18:00 +10°C° 0.2 mm 7 mps 729 mmHg 95%
    19:00 +10°C° 0.2 mm 7 mps 730 mmHg 95%
    20:00 +10°C° 0.1 mm 7 mps 730 mmHg 95%
    21:00 +10°C° 0.1 mm 7 mps 731 mmHg 95%
    22:00 +9°C° 0.1 mm 6 mps 731 mmHg 95%
    23:00 +9°C° 0.1 mm 6 mps 731 mmHg 95%

    Tomorrow, 23 May, Thursday

    Time Temperature Precipitation Wind Pressure Humidity
    00:00 +9°C° 0.1 mm 6 mps 731 mmHg 95%
    01:00 +9°C° 0.1 mm 6 mps 732 mmHg 95%
    02:00 +9°C° 0 mm 6 mps 732 mmHg 95%
    03:00 +8°C° 0 mm 6 mps 732 mmHg 95%
    04:00 +8°C° 0 mm 6 mps 732 mmHg 95%
    05:00 +8°C° 0.1 mm 6 mps 732 mmHg 95%
    06:00 +8°C° 0.1 mm 6 mps 732 mmHg 95%
    07:00 +7°C° 0.1 mm 6 mps 733 mmHg 94%
    08:00 +7°C° 0 mm 6 mps 733 mmHg 93%
    09:00 +7°C° 0 mm 6 mps 733 mmHg 92%
    10:00 +8°C° 0 mm 6 mps 734 mmHg 91%
    11:00 +9°C° 0 mm 5 mps 734 mmHg 82%
    12:00 +12°C° 0 mm 5 mps 734 mmHg 73%
    13:00 +14°C° 0 mm 5 mps 734 mmHg 64%
    14:00 +14°C° 0 mm 5 mps 734 mmHg 63%
    15:00 +15°C° 0 mm 4 mps 734 mmHg 62%
    16:00 +17°C° 0 mm 4 mps 733 mmHg 61%
    17:00 +16°C° 0 mm 3 mps 733 mmHg 65%
    18:00 +14°C° 0 mm 3 mps 733 mmHg 69%
    19:00 +14°C° 0 mm 2 mps 733 mmHg 73%
    20:00 +13°C° 0 mm 2 mps 733 mmHg 74%
    21:00 +10°C° 0 mm 2 mps 734 mmHg 74%
    22:00 +9°C° 0 mm 2 mps 734 mmHg 75%
    23:00 +8°C° 0 mm 2 mps 734 mmHg 78%

    Day after tomorrow, 24 May, Friday

    Time Temperature Precipitation Wind Pressure Humidity
    00:00 +9°C° 0 mm 1 mps 734 mmHg 80%
    01:00 +8°C° 0 mm 1 mps 734 mmHg 83%
    02:00 +8°C° 0 mm 1 mps 733 mmHg 84%
    03:00 +8°C° 0 mm 1 mps 733 mmHg 85%
    04:00 +7°C° 0 mm 1 mps 733 mmHg 87%
    05:00 +9°C° 0 mm 1 mps 733 mmHg 80%
    06:00 +11°C° 0 mm 1 mps 733 mmHg 73%
    07:00 +13°C° 0 mm 1 mps 734 mmHg 66%
    08:00 +15°C° 0 mm 2 mps 733 mmHg 61%
    09:00 +16°C° 0 mm 2 mps 733 mmHg 57%
    10:00 +17°C° 0 mm 2 mps 733 mmHg 53%
    11:00 +18°C° 0 mm 2 mps 733 mmHg 53%
    12:00 +19°C° 0 mm 2 mps 733 mmHg 52%
    13:00 +19°C° 0 mm 2 mps 732 mmHg 52%
    14:00 +19°C° 0 mm 2 mps 732 mmHg 53%
    15:00 +19°C° 0 mm 2 mps 732 mmHg 54%
    16:00 +20°C° 0 mm 1 mps 731 mmHg 55%
    17:00 +19°C° 0 mm 1 mps 731 mmHg 61%
    18:00 +18°C° 0 mm 1 mps 731 mmHg 68%
    19:00 +16°C° 0 mm 1 mps 730 mmHg 74%
    20:00 +14°C° 0 mm 1 mps 731 mmHg 77%
    21:00 +13°C° 0 mm 2 mps 731 mmHg 80%
    22:00 +12°C° 0 mm 2 mps 731 mmHg 84%
    23:00 +12°C° 0 mm 2 mps 731 mmHg 82%

    25 May, Saturday

    Time Temperature Precipitation Wind Pressure Humidity
    00:00 +12°C° 0 mm 2 mps 731 mmHg 81%
    01:00 +12°C° 0 mm 2 mps 731 mmHg 80%
    02:00 +12°C° 0 mm 2 mps 730 mmHg 83%
    03:00 +10°C° 0 mm 2 mps 730 mmHg 86%
    04:00 +10°C° 0 mm 2 mps 730 mmHg 89%
    05:00 +12°C° 0 mm 2 mps 731 mmHg 84%
    06:00 +14°C° 0 mm 2 mps 731 mmHg 79%
    07:00 +16°C° 0 mm 2 mps 731 mmHg 74%
    08:00 +17°C° 0 mm 3 mps 731 mmHg 69%
    09:00 +18°C° 0 mm 3 mps 731 mmHg 65%
    10:00 +19°C° 0 mm 3 mps 731 mmHg 61%
    11:00 +20°C° 0.1 mm 3 mps 731 mmHg 60%
    12:00 +20°C° 0.1 mm 3 mps 731 mmHg 60%
    13:00 +21°C° 0.1 mm 3 mps 731 mmHg 59%
    14:00 +20°C° 0.2 mm 3 mps 731 mmHg 61%
    15:00 +20°C° 0.2 mm 4 mps 731 mmHg 62%
    16:00 +20°C° 0.2 mm 4 mps 730 mmHg 64%
    17:00 +19°C° 0 mm 3 mps 730 mmHg 68%
    18:00 +17°C° 0 mm 3 mps 730 mmHg 72%
    19:00 +16°C° 0 mm 2 mps 730 mmHg 77%
    20:00 +14°C° 0 mm 2 mps 731 mmHg 80%
    21:00 +13°C° 0 mm 2 mps 731 mmHg 83%
    22:00 +10°C° 0 mm 2 mps 731 mmHg 86%
    23:00 +11°C° 0 mm 1 mps 731 mmHg 89%

    26 May, Sunday

    Time Temperature Precipitation Wind Pressure Humidity
    00:00 +10°C° 0 mm 1 mps 731 mmHg 91%
    01:00 +9°C° 0 mm 1 mps 731 mmHg 93%
    02:00 +9°C° 0 mm 1 mps 731 mmHg 93%
    03:00 +8°C° 0 mm 2 mps 731 mmHg 94%
    04:00 +8°C° 0 mm 2 mps 731 mmHg 94%
    05:00 +9°C° 0 mm 2 mps 731 mmHg 89%
    06:00 +10°C° 0 mm 3 mps 731 mmHg 83%
    07:00 +12°C° 0 mm 4 mps 731 mmHg 77%
    08:00 +13°C° 0 mm 4 mps 731 mmHg 71%
    09:00 +14°C° 0 mm 5 mps 731 mmHg 64%
    10:00 +15°C° 0 mm 5 mps 731 mmHg 58%
    11:00 +15°C° 0 mm 5 mps 731 mmHg 57%
    12:00 +15°C° 0 mm 6 mps 730 mmHg 56%
    13:00 +15°C° 0 mm 6 mps 730 mmHg 55%
    14:00 +15°C° 0 mm 6 mps 730 mmHg 56%
    15:00 +15°C° 0 mm 7 mps 730 mmHg 57%
    16:00 +15°C° 0 mm 7 mps 730 mmHg 58%
    17:00 +14°C° 0 mm 6 mps 730 mmHg 64%
    18:00 +13°C° 0 mm 5 mps 730 mmHg 70%
    19:00 +12°C° 0 mm 3 mps 730 mmHg 77%
    20:00 +11°C° 0 mm 3 mps 730 mmHg 82%
    21:00 +10°C° 0 mm 3 mps 730 mmHg 87%
    22:00 +8°C° 0 mm 2 mps 731 mmHg 92%
    23:00 +8°C° 0 mm 2 mps 731 mmHg 93%

    27 May, Monday

    Time Temperature Precipitation Wind Pressure Humidity
    00:00 +7°C° 0 mm 2 mps 731 mmHg 94%
    01:00 +7°C° 0 mm 2 mps 731 mmHg 94%
    02:00 +7°C° 0 mm 2 mps 731 mmHg 94%
    03:00 +8°C° 0 mm 1 mps 730 mmHg 93%
    04:00 +8°C° 0 mm 1 mps 730 mmHg 93%
    05:00 +10°C° 0 mm 1 mps 730 mmHg 88%
    06:00 +12°C° 0 mm 1 mps 730 mmHg 83%
    07:00 +14°C° 0 mm 2 mps 730 mmHg 78%
    08:00 +15°C° 0 mm 2 mps 730 mmHg 73%
    09:00 +17°C° 0 mm 2 mps 730 mmHg 68%
    10:00 +19°C° 0 mm 3 mps 730 mmHg 62%
    11:00 +19°C° 0 mm 3 mps 729 mmHg 60%
    12:00 +20°C° 0 mm 3 mps 729 mmHg 58%
    13:00 +21°C° 0 mm 3 mps 728 mmHg 56%
    14:00 +21°C° 0.1 mm 3 mps 728 mmHg 58%
    15:00 +22°C° 0.1 mm 3 mps 727 mmHg 60%
    16:00 +22°C° 0.1 mm 3 mps 727 mmHg 62%
    17:00 +20°C° 0.7 mm 3 mps 726 mmHg 70%
    18:00 +19°C° 0.7 mm 2 mps 726 mmHg 77%
    19:00 +17°C° 0.7 mm 2 mps 726 mmHg 85%
    20:00 +16°C° 0.9 mm 2 mps 726 mmHg 88%
    21:00 +15°C° 0.9 mm 2 mps 726 mmHg 90%
    22:00 +14°C° 0.9 mm 2 mps 726 mmHg 93%
    23:00 +14°C° 0.7 mm 2 mps 725 mmHg 93%
    Show more